This is the latest recevied weather packets stored in our database for station/object KF4UQS-14. If no packets are shown the sender has not sent any weather packets the latest 10 day(s).
| Time | Temp. | Humidity | Pressure | Rain* | Wind** | Luminosity | Snow |
|---|---|---|---|---|---|---|---|
| 1777587736 | 18.89° C | 66% | 1009.1 hPa | 0 mm | - | 62 W/m² | - |
| 1777587430 | 18.89° C | 65% | 1009.3 hPa | 0 mm | - | 140 W/m² | - |
| 1777587127 | 19.44° C | 64% | 1009.1 hPa | 0 mm | - | 155 W/m² | - |
| 1777586822 | 18.89° C | 63% | 1008.8 hPa | 0 mm | - | 174 W/m² | - |
| 1777586518 | 18.89° C | 64% | 1008.9 hPa | 0 mm | - | 185 W/m² | - |
| 1777586214 | 19.44° C | 62% | 1008.9 hPa | 0 mm | - | 201 W/m² | - |
| 1777585912 | 18.89° C | 63% | 1008.9 hPa | 0 mm | - | 218 W/m² | - |
| 1777585612 | 18.89° C | 64% | 1008.9 hPa | 0 mm | - | 233 W/m² | - |
| 1777585307 | 18.89° C | 63% | 1008.9 hPa | 0 mm | - | 251 W/m² | - |
| 1777585002 | 18.89° C | 62% | 1009 hPa | 0 mm | - | 265 W/m² | - |
| 1777584699 | 19.44° C | 62% | 1009.3 hPa | 0 mm | - | 276 W/m² | - |
| 1777584396 | 18.89° C | 62% | 1009.1 hPa | 0 mm | - | 291 W/m² | - |
| 1777584092 | 18.89° C | 65% | 1009.2 hPa | 0 mm | - | 335 W/m² | - |
| 1777583786 | 18.33° C | 65% | 1009.2 hPa | 0 mm | - | 160 W/m² | - |
| 1777583482 | 18.89° C | 64% | 1009.5 hPa | 0 mm | - | 172 W/m² | - |
| 1777583181 | 18.89° C | 64% | 1009.4 hPa | 0 mm | - | 381 W/m² | - |
| 1777582877 | 18.89° C | 64% | 1009.4 hPa | 0 mm | - | 164 W/m² | - |
| 1777582574 | 18.89° C | 63% | 1009.3 hPa | 0 mm | - | 167 W/m² | - |
| 1777582269 | 19.44° C | 62% | 1009.2 hPa | 0 mm | - | 193 W/m² | - |
| 1777581966 | 19.44° C | 64% | 1009 hPa | 0 mm | - | 219 W/m² | - |
| 1777581662 | 19.44° C | 63% | 1008.9 hPa | 0 mm | - | 162 W/m² | - |
| 1777581356 | 18.89° C | 63% | 1009.1 hPa | 0 mm | - | 222 W/m² | - |
| 1777581051 | 18.33° C | 67% | 1009.1 hPa | 0 mm | - | 222 W/m² | - |
| 1777580750 | 18.33° C | 66% | 1009.1 hPa | 0 mm | - | 170 W/m² | - |
| 1777580448 | 18.89° C | 65% | 1009.1 hPa | 0 mm | - | 129 W/m² | - |
* Rain latest hour (hover to see other rain measurements)
** Current wind speed in m/s (hover to see current wind gust speed)